Weather History for Crossville, TN

Change the Weather History Date:

Friday, August 23, 2013

  Actual Average Record
Temperature  
Mean Temperature 76 °F 74 °F  
Max Temperature 85 °F 83 °F 98 °F (2007)
Min Temperature 66 °F 64 °F 45 °F (1956)
Degree Days  
Heating Degree Days 0    
Month to date heating degree days 0  
Since 1 June heating degree days 0  
Since 1 July heating degree days 0  
Cooling Degree Days 11    
Month to date cooling degree days 170  
Year to date cooling degree days 682  
Since 1 June cooling degree days 602  
Growing Degree Days 25 (Base 50)    
Moisture  
Dew Point 66 °F    
Average Humidity 76    
Maximum Humidity 97    
Minimum Humidity 55    
Precipitation  
Precipitation 0.14 in 0.11 in 2.49 in (1970)
Month to date precipitation 3.37 3.09  
Year to date precipitation 46.63 37.22  
Sea Level Pressure  
Sea Level Pressure 30.11 in    
Wind  
Wind Speed 3 mph (North)    
Max Wind Speed 2 mph    
Max Gust Speed 2 mph    
Visibility 4 miles    
Events Fog , Rain , Thunderstorm    
T = Trace of Precipitation, MM = Missing Value Source: NWS Daily Summary

Daily Weather History Graph

Daily Weather History Graph

Search for Another Location

Airport:

Trip Planner

Search our weather history database for the weather conditions in past years. The results will help you decide how hot, cold, wet, or windy it might be!

Date:

Astronomy

Aug. 23, 2013 Rise Set
Actual Time 6:05 AM CDT 7:19 PM CDT
Civil Twilight 5:38 AM CDT 7:46 PM CDT
Nautical Twilight 5:06 AM CDT 8:18 PM CDT
Astronomical Twilight 4:33 AM CDT 8:51 PM CDT
Moon 8:46 PM CDT (8/23) 8:52 AM CDT (8/23)
Length of Visible Light 14h 07m
Length of Day
13h 14m
Waning Gibbous, 91% of the Moon is Illuminated
Aug 23
Waning Gibbous
Aug 28
Last Quarter
Sep 5
New
Sep 12
First Quarter
Sep 19
Full

Hourly Weather History & Observations

Time (CDT) Temp. Heat Index Dew Point Humidity Pressure Visibility Wind Dir Wind Speed Gust Speed Precip Events Conditions
12:53 AM 70.0 °F - 68.0 °F 93% 30.07 in 8.0 mi Calm Calm - N/A   Clear
1:23 AM 69.8 °F - 66.2 °F 88% 30.13 in 2.5 mi Calm Calm - N/A   Clear
1:30 AM 69.8 °F - 66.2 °F 88% 30.12 in 5.0 mi Calm Calm - N/A   Clear
1:40 AM 68.0 °F - 66.2 °F 94% 30.12 in 1.8 mi Calm Calm - N/A   Clear
1:53 AM 68.0 °F - 66.0 °F 93% 30.06 in 3.0 mi Calm Calm - N/A   Clear
2:53 AM 68.0 °F - 66.0 °F 93% 30.05 in 6.0 mi West 3.5 mph - 0.01 in   Clear
3:53 AM 68.0 °F - 66.0 °F 93% 30.06 in 6.0 mi Calm Calm - N/A   Scattered Clouds
4:53 AM 66.9 °F - 64.9 °F 93% 30.06 in 5.0 mi Calm Calm - N/A   Clear
5:04 AM 66.2 °F - 64.4 °F 94% 30.12 in 2.5 mi Calm Calm - N/A   Clear
5:11 AM 66.2 °F - 64.4 °F 94% 30.13 in 5.0 mi Calm Calm - N/A   Clear
5:45 AM 66.2 °F - 64.4 °F 94% 30.14 in 1.8 mi Calm Calm - N/A   Clear
5:53 AM 66.0 °F - 64.0 °F 93% 30.07 in 3.0 mi Calm Calm - N/A   Clear
6:04 AM 66.2 °F - 64.4 °F 94% 30.14 in 2.5 mi Calm Calm - N/A   Clear
6:24 AM 66.2 °F - 64.4 °F 94% 30.14 in 0.8 mi Calm Calm - N/A   Clear
6:36 AM 66.2 °F - 64.4 °F 94% 30.15 in 2.0 mi Calm Calm - N/A   Clear
6:45 AM 66.2 °F - 64.4 °F 94% 30.15 in 3.0 mi Calm Calm - N/A   Clear
6:53 AM 66.0 °F - 64.0 °F 93% 30.09 in 3.0 mi Calm Calm - N/A   Clear
7:53 AM 71.1 °F - 68.0 °F 90% 30.11 in 8.0 mi Calm Calm - N/A   Clear
8:53 AM 75.0 °F - 69.1 °F 82% 30.10 in 10.0 mi North 3.5 mph - N/A   Clear
9:53 AM 77.0 °F - 69.1 °F 76% 30.11 in 9.0 mi NNE 4.6 mph - N/A   Clear
10:53 AM 79.0 °F - 66.9 °F 66% 30.10 in 10.0 mi NE 4.6 mph - N/A   Partly Cloudy
11:53 AM 81.0 °F 83.0 °F 66.0 °F 60% 30.09 in 10.0 mi Variable 3.5 mph - N/A   Scattered Clouds
12:53 PM 82.0 °F 83.4 °F 64.0 °F 54% 30.08 in 10.0 mi Calm Calm - N/A   Clear
1:53 PM 82.9 °F 85.0 °F 66.0 °F 56% 30.05 in 10.0 mi NNW 5.8 mph - N/A   Partly Cloudy
2:53 PM 82.9 °F 84.4 °F 64.0 °F 53% 30.03 in 10.0 mi West 4.6 mph - N/A   Partly Cloudy
3:53 PM 84.0 °F 86.3 °F 66.0 °F 55% 30.01 in 10.0 mi North 5.8 mph - N/A   Mostly Cloudy
4:48 PM 80.6 °F 82.7 °F 66.2 °F 61% 30.10 in 9.0 mi NE 11.5 mph 18.4 mph N/A Thunderstorm Mostly Cloudy
4:53 PM 79.0 °F - 66.9 °F 66% 30.04 in 9.0 mi NE 12.7 mph 18.4 mph N/A Thunderstorm Thunderstorm
5:21 PM 71.6 °F - 64.4 °F 78% 30.12 in 1.5 mi ENE 19.6 mph 25.3 mph 0.08 in Rain , Thunderstorm Thunderstorms and Rain
5:33 PM 69.8 °F - 66.2 °F 88% 30.11 in 3.0 mi East 4.6 mph - 0.12 in Rain , Thunderstorm Light Thunderstorms and Rain
5:53 PM 70.0 °F - 66.9 °F 90% 30.06 in 3.0 mi SSE 3.5 mph - 0.12 in Thunderstorm Partly Cloudy
6:30 PM 71.6 °F - 66.2 °F 83% 30.12 in 3.0 mi Calm Calm - 0.01 in   Mostly Cloudy
6:39 PM 69.8 °F - 68.0 °F 94% 30.12 in 1.8 mi SSW 3.5 mph - 0.01 in   Scattered Clouds
6:51 PM 69.8 °F - 66.2 °F 88% 30.12 in 3.0 mi West 3.5 mph - 0.01 in   Clear
6:52 PM 70.0 °F - 66.9 °F 90% 30.07 in 3.0 mi West 4.6 mph - 0.01 in   Clear
7:53 PM 69.1 °F - 66.9 °F 93% 30.08 in 2.5 mi WNW 3.5 mph - N/A   Clear
8:01 PM 69.8 °F - 66.2 °F 88% 30.13 in 4.0 mi Calm Calm - N/A   Clear
8:53 PM 68.0 °F - 66.0 °F 93% 30.08 in 2.5 mi Calm Calm - N/A   Clear
9:10 PM 68.0 °F - 66.2 °F 94% 30.14 in 1.8 mi Calm Calm - N/A   Clear
9:18 PM 68.0 °F - 66.2 °F 94% 30.15 in 2.5 mi Calm Calm - N/A   Clear
9:27 PM 68.0 °F - 66.2 °F 94% 30.15 in 4.0 mi Calm Calm - N/A   Clear
9:53 PM 69.1 °F - 66.0 °F 90% 30.09 in 5.0 mi North 3.5 mph - N/A   Clear
10:15 PM 66.2 °F - 66.2 °F 100% 30.16 in 2.5 mi Calm Calm - N/A   Clear
10:44 PM 68.0 °F - 66.2 °F 94% 30.16 in 1.5 mi Calm Calm - N/A   Partly Cloudy
10:53 PM 68.0 °F - 66.0 °F 93% 30.10 in 1.2 mi Calm Calm - N/A   Partly Cloudy
11:05 PM 68.0 °F - 66.2 °F 94% 30.16 in 0.5 mi Calm Calm - N/A Fog Fog
11:17 PM 66.2 °F - 64.4 °F 94% 30.17 in 0.2 mi Calm Calm - N/A Fog Fog
11:27 PM 66.2 °F - 64.4 °F 94% 30.17 in 0.5 mi Calm Calm - N/A Fog Fog
11:32 PM 66.2 °F - 66.2 °F 100% 30.17 in 1.0 mi Calm Calm - N/A   Mist
11:40 PM 66.2 °F - 66.2 °F 100% 30.17 in 1.2 mi Calm Calm - N/A   Partly Cloudy
11:53 PM 66.9 °F - 64.9 °F 93% 30.11 in 2.0 mi Calm Calm - N/A   Clear